Location: Tel Aviv
(32.0670°N, 34.7670°E)
Time: 12:57:51
(UTC+03:00)

Tiros 1 - Pass Details

Date: 22 January 2022
Orbit: 629 x 663 km, 48.4° (Epoch: 27 May)

Event Time Altitude Azimuth Distance (km) Brightness Sun altitude
Rises 02:54:00 0° 313° (NW) 2,982 - -47.7°
Maximum altitude 02:59:35 11° 5° (N) 1,997 - -46.5°
Drops below altitude 10° 03:00:50 10° 21° (NNE) 2,055 - -46.2°
Exits shadow 03:04:33 - 54° (NE) 2,790 11.0 -45.4°
Sets 03:05:08 0° 58° (ENE) 2,954 11.2 -45.3°
